Weather in Bentota

Sri Lanka     6°25′19″N   79°59′47″E
temp.,
°C
wind,
m/s
gust,
m/s
humid.,
%
clouds,
%
prec.,
mm/h
press.,
hPa
HPBL,
m
10 may, mon
mon1023:30+27sse238655 15.9 1008173
02:30+26ese238786 1.4 1006147
05:30+26e2287100 1.6 1007109
08:30+28ese1175100 0.0 1009250
11:30+31ssw3362100 0.0 1008969
14:30+31sw4465100 0.1 1006785
17:30+30ssw3471100 0.6 1006512
20:30+28s247797 0.9 1008425
11 may, tue
tue1123:30+28s2378100 1.4 1008382
02:30+27ese1180100 0.0 1006261
05:30+26ese228771 0.7 1007131
08:30+29se1276100 0.3 1009315
11:30+31sw3267100 0.9 1008937
14:30+30wsw43686 2.3 1006814
17:30+29sw347147 2.6 1007495
20:30+28s227631 0.3 1008273
12 may, wed
wed1223:30+28s237977 0.6 1008426
02:30+27sse128284 0.9 1006467
05:30+27sse1282100 1.1 1007401
08:30+29s1276100 1.3 1009521
11:30+31wsw3366100 1.4 10081097
14:30+30wsw436971 1.0 1005997
17:30+29sw347456 1.8 1005558
20:30+28ssw237951 0.3 1007351
13 may, thu
thu1323:30+27ssw2381100 0.4 1007424
02:30+26ssw128595 2.4 1005235
05:30+26s128598 2.9 1006370
08:30+28s1178100 0.5 1008476
11:30+30sw2368100 0.9 1007947
14:30+30wsw4470100 0.8 1005785
17:30+29wsw2473100 0.9 1005467
20:30+28ssw2377100 0.0 1006412
14 may, fri
fri1423:30+27s238014 0.0 1007421
02:30+27sse2284100 0.2 1005312
05:30+26se2386100 0.9 1006317
08:30+28se2481100 0.1 1007391
11:30+31ssw4463100 0.2 10061214
14:30+31ssw5564100 0.0 10041085
17:30+29s4673100 0.1 1004653
20:30+28sse3580100 0.3 1006447